Regional Weather Roundup
Issued by NWS

Home | Current Version | Previous Version | Text Only | Print | Product List | Glossary Off
Versions: 1 2 3 4 5 6 7 8 9 10 11 12 13 14 15 16 17 18 19 20 21 22 23 24 25 26 27

000
ASUS45 KSLC 301310
RWRUT

UTAH REGIONAL WEATHER ROUNDUP
NATIONAL WEATHER SERVICE SALT LAKE CITY UT
700 AM MDT FRI SEP 30 2016

UTZ001>011-023>025-301400-

NORTHERN UTAH

CITY           SKY/WX    TMP DP  RH WIND       PRES   REMARKS
BRIGHAM CITY     N/A     53  49  86 CALM      30.20R
HILL AFB       PTCLDY    58  47  67 SE14      30.21R
LOGAN          MOCLDY    49  47  93 CALM      30.21R
OGDEN          PTCLDY    57  48  72 S10       30.19S
PROVO AIRPORT  MOCLDY    58  47  66 SE10      30.24S
SALT LAKE CITY MOCLDY    62  50  64 SE9       30.18S
VERNAL         CLOUDY    50  48  93 W5        30.32R
WENDOVER       PTCLDY    57  48  72 E9        30.18R
HEBER CITY     MOCLDY    46  43  87 CALM      30.28S
WEST JORDAN    MOCLDY    60  49  66 S15G22    30.22R

$$

UTZ012>022-026-027-301400-

SOUTHERN/CENTRAL UTAH

CITY           SKY/WX    TMP DP  RH WIND       PRES   REMARKS
BLANDING       CLOUDY    52  50  95 NE3       30.43S
BRYCE CANYON   CLOUDY    48  46  93 CALM      30.43S
CEDAR CITY     MOCLDY    54  46  74 SW5       30.30R
DELTA          PTCLDY    54  45  71 SE5       30.24R
MILFORD        CLOUDY    56  48  74 SW13      30.26S
MOAB/CYNLANDS  CLOUDY    58  55  90 N5        30.29R
PRICE          CLOUDY    55  51  86 CALM      30.35R
ST GEORGE      PTSUNNY   64  54  68 CALM      30.22R

$$

REGIONAL REPORTS     COLORADO/ARIZONA

CITY           SKY/WX    TMP DP  RH WIND       PRES   REMARKS
CRAIG, CO      LGT RAIN  53  50  89 E5        30.35S
GRAND JUNCTION CLOUDY    56  55  97 SE6       30.31S
RIFLE          CLOUDY    56  55  97 CALM      30.35S
MONTROSE       CLOUDY    54  51  90 CALM      30.37S
CORTEZ         CLOUDY    47  46  97 E6        30.37R
PAGE, AZ       CLOUDY    62  56  80 CALM      30.27S
GRAND CANYON   PTCLDY    45  43  93 CALM      30.38R
KINGMAN        CLEAR     60  47  61 S3        30.18R
FLAGSTAFF      CLEAR     42  42 100 CALM      30.38S

$$

REGIONAL REPORTS    NEVADA/IDAHO/WYOMING

CITY           SKY/WX    TMP DP  RH WIND       PRES   REMARKS
LAS VEGAS, NV  MOCLDY    74  46  36 W5        30.09R
ELY            CLOUDY    45  39  79 S12       30.30S
ELKO           PTCLDY    51  44  77 NE5       30.21R
POCATELLO, ID  PTCLDY    47  45  93 NE3       30.19R
BURLEY         MOCLDY    50  47  89 CALM      30.14R
EVANSTON, WY   PTCLDY    47  40  76 S7        30.33S
ROCK SPRINGS   CLOUDY    48  43  82 N6        30.32S

$$




USA.gov is the U.S. government's official web portal to all federal, state and local government web resources and services.